New York Downtown Manhattan/w, NY

8:25 AM EDT on October 23, 2019 (GMT -0400)
New York Downtown Manhattan/w

Weather History for KJRB - August, 2019

Change the Weather History Date:

Wednesday, August 7, 2019

  Actual Average (WUND) Record (WUND)
Temperature  
Mean Temperature 76 °F -  
Max Temperature 84 °F - - (-1)
Min Temperature 69 °F - - (-1)
Cooling Degree Days 12    
Growing Degree Days 26 (Base 50)    
Moisture  
Dew Point 71 °F    
Average Humidity 87    
Maximum Humidity 94    
Minimum Humidity 69    
Precipitation  
Precipitation 0.13 in - - ()
Sea Level Pressure  
Sea Level Pressure 29.81 in    
Wind  
Wind Speed 5 mph (SSW)    
Max Wind Speed 18 mph    
Max Gust Speed 23 mph    
Visibility 9 miles    
Events Rain , Thunderstorm    
Averages and records for this station are not official NWS values.
T = Trace of Precipitation, MM = Missing Value Source: NWS Daily Summary

Daily Weather History Graph

Daily Weather History Graph

Search for Another Location

Airport or City:

Astronomy

Aug. 07, 2019 Rise Set
Actual Time 5:58 AM EDT 8:04 PM EDT
Civil Twilight 5:28 AM EDT 8:34 PM EDT
Nautical Twilight 4:51 AM EDT 9:11 PM EDT
Astronomical Twilight 4:10 AM EDT 9:51 PM EDT
Moon 1:30 PM EDT (8/7) No Moon Set
Length of Visible Light 15h 06m
Length of Day
14h 06m
Waxing Crescent, 49% of the Moon is Illuminated
Aug 7
Waxing Crescent
Aug 7
First Quarter
Aug 15
Full
Aug 23
Last Quarter
Aug 30
New

Hourly Weather History & Observations

Time (EDT) Temp. Heat Index Dew Point Humidity Pressure Visibility Wind Dir Wind Speed Gust Speed Precip Events Conditions
12:56 AM 75.0 °F - 70.0 °F 84% 29.86 in 10.0 mi WSW 5.8 mph - N/A   Scattered Clouds
1:56 AM 75.0 °F - 70.0 °F 84% 29.85 in 10.0 mi West 3.5 mph - N/A   Overcast
2:56 AM 75.0 °F - 71.1 °F 87% 29.84 in 10.0 mi West 3.5 mph - N/A   Mostly Cloudy
3:56 AM 73.9 °F - 71.1 °F 91% 29.84 in 10.0 mi Calm Calm - N/A   Partly Cloudy
4:33 AM 73.4 °F - 71.6 °F 94% 29.84 in 10.0 mi Calm Calm - N/A   Mostly Cloudy
4:56 AM 73.9 °F - 71.1 °F 91% 29.84 in 10.0 mi SW 3.5 mph - N/A   Overcast
5:44 AM 73.4 °F - 71.6 °F 94% 29.85 in 10.0 mi Calm Calm - N/A Thunderstorm Mostly Cloudy
5:48 AM 73.4 °F - 71.6 °F 94% 29.85 in 10.0 mi South 3.5 mph - N/A Thunderstorm Mostly Cloudy
5:56 AM 73.9 °F - 71.1 °F 91% 29.85 in 10.0 mi SW 3.5 mph - N/A Thunderstorm Mostly Cloudy
6:31 AM 73.4 °F - 71.6 °F 94% 29.85 in 10.0 mi SW 3.5 mph - N/A   Scattered Clouds
6:45 AM 73.4 °F - 71.6 °F 94% 29.85 in 10.0 mi SW 3.5 mph - N/A   Mostly Cloudy
6:56 AM 75.0 °F - 71.1 °F 87% 29.84 in 10.0 mi Calm Calm - N/A   Mostly Cloudy
7:56 AM 75.0 °F - 71.1 °F 87% 29.85 in 10.0 mi SSE 4.6 mph - 0.02 in   Scattered Clouds
8:37 AM 75.2 °F - 71.6 °F 89% 29.86 in 10.0 mi South 8.1 mph - N/A   Overcast
8:56 AM 77.0 °F - 71.1 °F 82% 29.86 in 10.0 mi South 8.1 mph - N/A   Scattered Clouds
9:42 AM 78.8 °F - 71.6 °F 78% 29.85 in 10.0 mi South 10.4 mph - N/A   Mostly Cloudy
9:56 AM 79.0 °F - 70.0 °F 74% 29.85 in 10.0 mi South 12.7 mph - N/A   Overcast
10:56 AM 80.1 °F 83.8 °F 72.0 °F 76% 29.85 in 10.0 mi South 9.2 mph 18.4 mph N/A   Overcast
11:56 AM 82.9 °F 88.0 °F 72.0 °F 69% 29.84 in 9.0 mi South 10.4 mph - N/A   Overcast
12:22 PM 82.4 °F 88.2 °F 73.4 °F 74% 29.84 in 10.0 mi South 8.1 mph - N/A   Scattered Clouds
12:56 PM 84.0 °F 91.2 °F 73.9 °F 72% 29.84 in 10.0 mi SSW 10.4 mph 16.1 mph N/A   Mostly Cloudy
1:28 PM 84.2 °F 90.9 °F 73.4 °F 70% 29.82 in 7.0 mi South 15.0 mph - N/A   Scattered Clouds
1:40 PM 82.4 °F 88.2 °F 73.4 °F 74% 29.80 in 10.0 mi South 11.5 mph 20.7 mph N/A Thunderstorm Partly Cloudy
1:56 PM 82.0 °F 87.4 °F 73.0 °F 74% 29.80 in 9.0 mi South 11.5 mph 18.4 mph N/A Thunderstorm Thunderstorm
2:56 PM 80.1 °F 84.5 °F 73.9 °F 81% 29.82 in 9.0 mi SW 13.8 mph 18.4 mph N/A Thunderstorm Thunderstorm
3:09 PM 78.8 °F - 73.4 °F 83% 29.83 in 8.0 mi West 18.4 mph 23.0 mph 0.00 in Rain Light Rain
3:16 PM 75.2 °F - 71.6 °F 89% 29.82 in 9.0 mi West 9.2 mph 23.0 mph 0.00 in Rain Light Rain
3:23 PM 75.2 °F - 69.8 °F 83% 29.81 in 9.0 mi NNE 4.6 mph - 0.00 in Rain Light Rain
3:51 PM 77.0 °F - 71.6 °F 83% 29.76 in 10.0 mi Calm Calm - 0.01 in Thunderstorm Mostly Cloudy
3:56 PM 77.0 °F - 72.0 °F 84% 29.76 in 10.0 mi Calm Calm - 0.01 in Thunderstorm Mostly Cloudy
4:11 PM 77.0 °F - 71.6 °F 83% 29.77 in 10.0 mi SW 3.5 mph - N/A   Overcast
4:22 PM 75.2 °F - 69.8 °F 83% 29.77 in 10.0 mi Calm Calm - N/A Thunderstorm Overcast
4:53 PM 75.2 °F - 73.4 °F 94% 29.75 in 9.0 mi Calm Calm - 0.00 in Thunderstorm Thunderstorm
4:56 PM 75.9 °F - 73.0 °F 91% 29.75 in 9.0 mi Variable 3.5 mph - 0.00 in Thunderstorm Thunderstorm
5:11 PM 75.2 °F - 71.6 °F 89% 29.79 in 9.0 mi Variable 4.6 mph - 0.01 in   Overcast
5:19 PM 75.2 °F - 71.6 °F 89% 29.80 in 6.0 mi Variable 3.5 mph - 0.01 in Thunderstorm Overcast
5:33 PM 73.4 °F - 71.6 °F 94% 29.80 in 1.8 mi West 9.2 mph 17.3 mph 0.10 in Rain , Thunderstorm Thunderstorms and Rain
5:41 PM 73.4 °F - 69.8 °F 88% 29.79 in 1.5 mi Variable 6.9 mph - 0.10 in Rain , Thunderstorm Heavy Thunderstorms and Rain
5:48 PM 71.6 °F - 69.8 °F 94% 29.81 in 0.8 mi Variable 6.9 mph - 0.10 in Rain , Thunderstorm Light Rain
5:56 PM 71.1 °F - 69.1 °F 93% 29.78 in 0.8 mi ENE 13.8 mph 18.4 mph 0.10 in Rain , Thunderstorm Light Thunderstorms and Rain
6:02 PM 71.6 °F - 69.8 °F 94% 29.77 in 1.2 mi Variable 6.9 mph 20.7 mph 0.00 in Thunderstorm Overcast
6:05 PM 71.6 °F - 69.8 °F 94% 29.77 in 3.0 mi Variable 4.6 mph 20.7 mph 0.00 in Thunderstorm Overcast
6:11 PM 71.6 °F - 68.0 °F 88% 29.79 in 10.0 mi Variable 5.8 mph - 0.00 in Rain Light Rain
6:23 PM 71.6 °F - 68.0 °F 88% 29.79 in 9.0 mi Variable 4.6 mph - 0.00 in Rain , Thunderstorm Light Rain
6:46 PM 71.6 °F - 68.0 °F 88% 29.80 in 10.0 mi SW 6.9 mph - 0.00 in   Overcast
6:56 PM 71.1 °F - 68.0 °F 90% 29.79 in 7.0 mi West 6.9 mph - 0.00 in Rain , Thunderstorm Light Rain
7:56 PM 70.0 °F - 66.9 °F 90% 29.82 in 6.0 mi South 3.5 mph - 0.00 in Rain , Thunderstorm Light Rain
8:03 PM 69.8 °F - 68.0 °F 94% 29.82 in 8.0 mi South 4.6 mph - 0.00 in Rain Light Rain
8:56 PM 70.0 °F - 68.0 °F 93% 29.80 in 10.0 mi SSW 5.8 mph - 0.00 in Rain Light Rain
9:13 PM 71.6 °F - 69.8 °F 94% 29.79 in 10.0 mi WSW 5.8 mph - 0.00 in Rain Light Rain
9:56 PM 71.1 °F - 69.1 °F 93% 29.77 in 10.0 mi SW 4.6 mph - 0.00 in   Scattered Clouds
10:30 PM 71.6 °F - 69.8 °F 94% 29.77 in 10.0 mi SSW 3.5 mph - 0.00 in Rain Light Rain
10:56 PM 71.1 °F - 69.1 °F 93% 29.78 in 10.0 mi SSW 8.1 mph - 0.00 in   Scattered Clouds
11:56 PM 71.1 °F - 68.0 °F 90% 29.78 in 10.0 mi WSW 4.6 mph - N/A   Clear